Погода в Кицкове

Россия / Псковская область     56°24′34″N   28°47′54″E
темп.,
°C
ветер,
м/с
пор.,
м/с
влажн.,
%
обл.,
%
осадки,
мм/ч
давл.,
гПа
погр.,
м
16 апреля, пт
пт1600:00+6св5128697 0.9 1020579
03:00+5св5138677 2.3 1020535
06:00+4св51388100 0.0 1019446
09:00+6св51284100 0.0 1020665
12:00+9всв51075100 0.1 1020755
15:00+13всв5969100 0.8 10201178
18:00+12всв5972100 0.0 10191123
21:00+11всв41078100 0.0 1020546
17 апреля, сб
сб1700:00+9св51180100 0.0 1021478
03:00+8св4118385 0.0 1021454
06:00+6св4118464 0.0 1021480
09:00+8всв41080100 0.0 1022478
12:00+8всв388199 0.0 1023450
15:00+14всв456168 0.0 10231342
18:00+13св486996 0.0 10221128
21:00+9ссв289174 0.0 1022156
18 апреля, вс
вс1800:00+9св4117999 0.0 1023477
03:00+7св3107848 0.0 1023346
06:00+5св310775 0.0 1023342
09:00+8св47645 0.0 1023517
12:00+13св46514 0.0 10231115
15:00+14всв574326 0.0 10231700
18:00+14всв47455 0.0 10231939
21:00+8св396624 0.0 1024218
19 апреля, пн
пн1900:00+6всв39765 0.0 1025226
03:00+5всв26865 0.0 1025144
06:00+4св299022 0.0 1025265
09:00+9в4106713 0.0 10251044
12:00+12всв585491 0.0 10241774
15:00+12в475597 0.1 10241592
18:00+10в4766100 0.3 10231121
21:00+8в387598 0.3 1023495
20 апреля, вт
вт2000:00+6всв2782100 0.1 1022353
03:00+5св399076 0.1 1020480
06:00+5всв498596 0.0 1018753
09:00+6всв4977100 0.0 1017818
12:00+4всв41194100 1.1 1016662
15:00+6всв31088100 2.4 1013939
18:00+7св41083100 1.0 10101033
21:00+6св51288100 2.7 10071038